Flag for U.S.A. Weather past 2 weeks in Urbana, Illinois, U.S.A.

Now
33 °F

Light snow. Fog.


Feels Like: 27 °F
Forecast: 21 / 36 °F
Wind: 7 mph from Southwest

Location: University Of Illinois-Willard Airport

Current Time: Jan 31, 2015 at 6:36:21 PM

Latest Report: Jan 31, 2015 at 5:53 PM


Visibility: 4 mi

Pressure: 30.25 "Hg

Humidity: 92%

Dew point: 31 °F

Location of UrbanaLocation

Historic Weather in Urbana — Graph

°F

Urbana temperature yesterday

Maximum temperature yesterday: 34 °F (at 2:53 PM)
Minimum temperature yesterday: 22 °F (at 11:53 PM)
Average temperature yesterday: 28 °F

Past Weeks' High & Low Weather Summary

 TemperatureHumidityPressure
High47 °F (Jan 17, 1:53 PM)97% (Jan 21, 7:53 PM)30.56 "Hg (Jan 21, 7:53 PM)
Low19 °F (Jan 28, 1:53 AM)47% (Jan 30, 12:53 PM)29.61 "Hg (Jan 25, 4:53 AM)
Average33 °F82%30.06 "Hg
* Reported Jan 16 4:53 PM — Jan 31 4:53 PM, Urbana, Weather by CustomWeather, © 2014

Note: Actual official high and low records may vary slightly from our data, if they occured in-between our weather recording intervals... More about our weather records

Advertising

Urbana weather history for previous 24 hours

 ConditionsComfort  
Time TempWeatherWind HumidityBarometerVisibility
4:53 PM
Jan 31
34 °FLight rain. Fog.6 mph85%30.24 "Hg6 mi
3:53 PM36 °FMostly cloudy.8 mph75%30.24 "Hg9 mi
2:53 PM37 °FMostly cloudy.10 mph73%30.25 "Hg10 mi
1:53 PM38 °FPassing clouds.14 mph70%30.26 "Hg10 mi
12:53 PM38 °FPassing clouds.13 mph68%30.27 "Hg10 mi
11:53 AM37 °FOvercast.13 mph70%30.30 "Hg10 mi
10:53 AM35 °FScattered clouds.16 mph70%30.32 "Hg10 mi
9:53 AM33 °FSunny.13 mph75%30.33 "Hg10 mi
8:53 AM30 °FSunny.13 mph82%30.34 "Hg10 mi
7:53 AM27 °FSunny.8 mph81%30.34 "Hg10 mi
6:53 AM26 °FClear.8 mph81%30.34 "Hg10 mi
5:53 AM26 °FPassing clouds.10 mph81%30.33 "Hg10 mi
4:53 AM26 °FOvercast.9 mph81%30.34 "Hg10 mi
3:53 AM26 °FPassing clouds.7 mph81%30.34 "Hg10 mi
2:53 AM27 °FOvercast.6 mph81%30.36 "Hg10 mi
1:53 AM26 °FOvercast.8 mph81%30.39 "Hg10 mi
12:53 AM22 °FClear.7 mph85%30.40 "Hg10 mi
11:53 PM
Jan 30
22 °FClear.7 mph85%30.41 "Hg10 mi
10:53 PM23 °FClear.7 mph81%30.43 "Hg10 mi
9:53 PM23 °FClear.5 mph85%30.44 "Hg10 mi
8:53 PM25 °FClear.No wind85%30.45 "Hg10 mi
7:53 PM26 °FClear.3 mph74%30.46 "Hg10 mi
6:53 PM26 °FClear.No wind77%30.48 "Hg10 mi
Weather by CustomWeather, © 2014

See weather overviewHow to use our weather pages